Regional Weather Roundup
Issued by NWS Northern Indiana

Home | Current Version | Previous Version | Graphics & Text | Print | Product List | Glossary On
Versions: 1 2 3 4 5 6 7 8 9 10 11 12 13 14 15 16 17 18 19 20 21 22 23 24 25 26 27 28 29 30 31 32 33 34 35 36 37 38 39 40 41 42 43 44 45 46 47 48 49 50
000
ASUS43 KIWX 281900
RWRIWX

KIWX WEATHER ROUNDUP
NATIONAL WEATHER SERVICE NORTHERN INDIANA
300 PM EDT THU MAY 28 2015

NOTE: "FAIR" INDICATES FEW OR NO CLOUDS BELOW 12,000 FEET WITH NO
SIGNIFICANT WEATHER AND/OR OBSTRUCTIONS TO VISIBILITY.

* THESE STATIONS ARE NOT UNDER NWS QUALITY CONTROL. THEY ALSO MAY NOT
  REPORT WEATHER SUCH AS PRECIPITATION OR FOG.

INZ001>027-282000-
NORTHERN INDIANA

CITY           SKY/WX    TMP DP  RH WIND       PRES   REMARKS
GARY*          MOSUNNY   79  59  50 NE10      30.18F
SOUTH BEND     SUNNY     81  53  37 SE14G20   30.19F
ELKHART*       SUNNY     79  54  41 E12       30.20F
GOSHEN         SUNNY     80  58  46 E10       30.19F
MONTICELLO*    SUNNY     78  59  51 SE10      30.17F
WARSAW*        SUNNY     79  59  50 SE7       30.20F
ANGOLA*        SUNNY     79  55  44 S13       30.22F
FORT WAYNE     MOSUNNY   78  59  51 SE12      30.21F

$$
INZ028>050-282000-
CENTRAL INDIANA

CITY           SKY/WX    TMP DP  RH WIND       PRES   REMARKS
LAFAYETTE      SUNNY     79  60  52 E9        30.15F
KOKOMO*        SUNNY     81  57  44 E13G23    30.17F
MUNCIE*        MOSUNNY   82  58  43 E9        30.18F
INDIANAPOLIS   MOSUNNY   82  58  43 SE5       30.15F

$$
MIZ043>046-050>051-056>058-064>065-071>073-077>080-282000-
SOUTHWEST LOWER MICHIGAN

CITY           SKY/WX    TMP DP  RH WIND       PRES   REMARKS
BATTLE CREEK   SUNNY     79  55  43 VRB3      30.22F
BENTON HARBOR  MOSUNNY   80  56  43 S10       30.18F
COLDWATER*     SUNNY     77  55  46 SE10      30.21F
HILLSDALE*     SUNNY     79  54  41 SE9G17    30.24F
HOLLAND        MOSUNNY   78  60  53 CALM      30.20F
GRAND RAPIDS   MOSUNNY   79  57  46 MISG      30.19F
KALAMAZOO      SUNNY     79  58  48 S9        30.21F
STURGIS*       SUNNY     79  54  41 E14       30.20F
THREE RIVERS*  FAIR      79  51  37 SE8       30.21F

$$
OHZ001>008-015>018-024>025-282000-
NORTHWEST OHIO

CITY           SKY/WX    TMP DP  RH WIND       PRES   REMARKS
DEFIANCE       SUNNY     78  58  49 E12       30.22F
FINDLAY        SUNNY     80  53  39 E12       30.21F
TOLEDO EXPRESS SUNNY     77  53  43 E8        30.23
TOLEDO METCALF SUNNY     77  54  44 E8        30.25F
LIMA           PTSUNNY   78  59  51 E10       30.21F

$$
AND FOR LAKE MICHIGAN COASTAL AND OPEN LAKE BUOY OBSERVATIONS

STATION/POSITION TEMP    WIND        PRES    VSBY  WAVE
                 AIR SEA DIR/SP/G                  HT/PER
                 (F)     (DEG/KT/KT) (MB)    (MI)  (FT/S)
CALUMET HARBOR    65      40/ 10/ 11   N/A
MICHIGAN CITY     77      70/  9/ 13   N/A
BURNS HARBOR      65      40/ 10/ 12 1022.0F
SAINT JOSEPH      68      40/  2/  8 1023.4F
SOUTH LAKE BUOY   49 39  150/  8/  8 1022.9F         0
4 MI NW BRIDGMAN  63 60   20/  6/  8   N/A           0
MICHIGAN CITY     62 57   40/  6/  8   N/A           0

$$
&&



USA.gov is the U.S. government's official web portal to all federal, state and local government web resources and services.